SCP
-0 -0 -0 -0 -0 -0 -0 -0 0 0 0 0 0 -0 0 0 0 0 0 -0 -0 -0 -0 -0 -0 0 -0 -0 -0 -0 -0 -0 -0 -0 -0 -0 -0 -0 0 0 0 0 0 0 0 -0 0
-0 -0 -0 -0 -0 -0 -0 -0 -0 0 0 0 0 0 0 0 0 0 0 -0 -0 -0 -0 -0 -0 -0 -0 -0 -0 -0 -0 -0 -0 -0 -0 -0 -0 -0 -0 -0 -0 0 0 0 0 0 -0
-0 -0 -0 -0 -0 -0 -0 -0 -0 -0 0 0 0 0 0 0 0 0 -0 -0 -0 -0 -0 -0 -0 -0 -0 -0 0 -0 -0 0 -0 -0 -0 -0 -0 0 -0 0 0 -0 -0 0 0 0 0
-0 -0 -0 -0 -0 -0 -0 -0 -0 -0 0 0 0 0 0 0 0 -0 -0 -0 -0 -0 -0 -0 -0 -0 -0 -0 -0 -0 -0 -0 -0 -0 -0 -0 0 -0 -0 0 0 0 -0 -0 0 0 0
-0 -0 -0 -0 -0 -0 -0 -0 -0 -0 -0 0 0 0 0 0 -0 -0 -0 -0 -0 -0 -0 -0 -0 -0 -0 -0 -0 0 -0 -0 0 -0 -0 -0 -0 -0 0 0 -0 0 -0 -0 0 0 0
-0 -0 -0 -0 -0 -0 -0 -0 -0 -0 -0 -0 0 0 0 0 -0 -0 -0 -0 -0 -0 -0 -0 -0 -0 -0 0 0 -0 0 -0 -0 0 0 -0 -0 -0 0 -0 0 -0 0 -0 0 0 0
-0 -0 -0 -0 -0 -0 -0 -0 -0 -0 -0 -0 0 0 0 0 -0 -0 -0 0 -0 0 -0 -0 0 -0 0 0 0 0 0 -0 0 -0 -0 -0 0 0 0 0 0 0 0 0 -0 0 0
-0 -0 -0 -0 -0 -0 -0 -0 -0 -0 -0 -0 -0 0 0 0 0 0 0 0 0 -0 0 -0 0 0 0 0 0 0 0 0 0 0 -0 -0 -0 0 -0 0 0 0 0 0 0 0 0
-0 -0 -0 -0 -0 -0 -0 -0 -0 -0 -0 -0 -0 0 0 0 0 0 0 0 0 0 -0 0 0 0 0 -0 -0 0 -0 -0 0 0 -0 0 0 0 0 0 0 0 0 0 0 0 0
0 -0 -0 -0 -0 -0 -0 -0 -0 -0 -0 -0 -0 0 0 0 0 -0 0 0 -0 0 0 0 0 -0 0 -0 0 0 0 -0 -0 0 0 0 0 0 0 0 0 0 0 0 0 0 0
0 0 0 -0 -0 -0 -0 -0 -0 -0 -0 -0 -0 -0 0 0 0 -0 0 0 0 -0 0 0 -0 0 0 -0 0 0 0 -0 -0 0 0 0 0 0 -0 0 0 0 0 0 0 0 0
0 0 0 0 -0 -0 -0 -0 -0 -0 -0 -0 -0 -0 0 0 0 0 0 0 0 0 0 0 0 0 -0 -0 0 0 0 0 0 -0 0 0 0 0 0 0 0 0 0 0 -0 0 0
0 0 0 0 0 -0 -0 -0 -0 -0 -0 -0 -0 0 -0 0 0 0 0 0 0 -0 0 0 0 0 0 0 0 0 0 0 0 0 0 0 0 0 0 0 0 0 0 0 0 -0 0
0 0 0 0 0 0 -0 -0 -0 -0 -0 -0 -0 0 -0 0 0 0 0 0 0 0 -0 0 -0 0 0 -0 0 0 0 -0 0 0 -0 -0 0 0 0 0 0 0 0 0 0 0 0
0 0 0 0 0 0 0 -0 -0 -0 -0 -0 -0 -0 -0 0 0 0 0 -0 0 0 0 0 0 -0 0 0 0 0 0 0 0 0 0 0 0 0 0 0 0 0 0 0 0 0 0
0 0 0 0 0 0 0 0 -0 -0 -0 -0 -0 -0 -0 0 0 0 0 -0 0 0 0 0 -0 0 0 0 0 0 0 0 0 0 0 0 0 0 0 0 0 0 0 0 0 0 0
0 0 0 0 0 0 0 0 0 -0 -0 0 -0 -0 0 0 0 0 -0 -0 0 0 0 0 -0 0 0 0 0 0 0 0 0 0 0 0 0 0 0 0 0 0 0 0 0 0 0
0 0 0 0 0 0 0 0 0 0 -0 0 0 -0 0 0 0 -0 -0 0 0 0 0 0 0 0 0 0 0 0 0 0 0 0 0 0 0 0 0 0 0 0 0 0 0 0 0
0 0 0 0 0 0 0 0 0 0 0 0 0 0 0 0 0 -0 0 0 0 0 0 0 0 0 0 0 0 0 0 0 0 0 0 0 0 0 0 0 0 0 0 0 0 0 0
0 0 0 0 0 0 0 0 0 0 0 0 0 0 0 0 0 0 0 0 0 0 0 0 0 0 0 0 0 0 0 0 0 0 0 0 0 0 0 -0 0 0 0 0 0 0 0
0 0 0 0 0 0 0 0 0 0 0 0 0 0 0 0 0 0 0 0 0 0 0 0 0 0 0 0 0 0 0 0 0 0 0 0 0 0 0 0 -0 0 0 0 0 0 0
0 0 0 0 0 0 0 0 0 0 0 0 0 0 0 0 0 0 0 0 0 0 0 0 0 0 0 0 0 0 0 0 0 0 0 0 0 0 0 0 0 0 0 0 0 0 0
0 0 0 0 0 0 0 0 0 0 0 0 0 0 0 0 0 0 0 0 0 0 0 0 0 0 0 0 0 0 0 0 0 0 0 0 0 0 0 0 0 0 0 0 0 0 0
0 0 0 0 0 0 0 0 0 0 0 0 0 0 0 0 0 0 0 0 0 0 0 0 0 0 0 0 0 0 0 0 0 0 0 0 0 0 0 0 0 0 0 0 0 0 0
0 0 0 0 0 0 0 0 0 0 0 0 0 0 0 0 0 0 0 0 0 0 0 0 0 0 0 0 0 0 0 0 0 0 0 0 0 0 0 0 0 0 0 0 0 0 0
0 0 0 0 0 0 0 0 0 0 0 0 0 0 0 0 0 0 0 0 0 0 0 0 0 0 0 0 0 0 0 0 0 0 0 0 0 0 0 0 0 0 0 0 0 0 0
0 0 0 0 0 0 0 0 0 0 0 0 0 0 0 0 0 0 0 0 0 0 0 0 0 0 0 0 0 0 0 0 0 0 0 0 0 0 0 0 0 0 0 0 0 0 0
0 0 0 0 0 0 0 0 0 0 0 0 0 0 0 0 0 0 0 0 0 0 0 0 0 0 0 0 0 0 0 0 0 0 0 0 0 0 0 0 0 0 0 0 0 0 0
0 0 0 0 0 0 0 0 0 0 0 0 0 0 0 0 0 0 0 0 0 0 0 0 0 0 0 0 0 0 0 0 0 0 0 0 0 0 0 0 0 0 0 0 0 0 0
Wind_Speed_500mb
53 52 49 43 30 18 13 10 8 8 10 16 19 18 17 17 18 18 19 17 10 5 6 17 26 24 16 20 7 5 2 1 5 18 29 32 29 27 19 5 4 26 13 10 8 0 15
53 53 52 49 40 26 16 11 10 11 14 17 17 16 17 16 16 16 17 15 10 4 6 13 22 26 25 33 5 2 5 8 13 15 16 19 24 19 26 10 11 21 5 9 5 18 3
51 52 53 51 48 34 21 13 11 11 13 15 14 14 14 12 12 13 14 14 10 4 4 5 16 23 24 12 4 6 7 8 10 13 17 14 19 17 19 4 14 12 14 17 13 8 8
51 50 50 52 50 45 28 18 11 10 11 12 11 11 9 8 8 9 11 13 11 6 4 5 14 18 15 4 7 6 7 6 7 8 13 13 13 19 31 12 10 24 27 27 27 15 16
50 50 49 49 50 48 39 25 14 8 7 8 8 7 5 4 4 5 8 12 11 9 7 10 15 17 10 3 9 3 8 10 6 6 8 11 12 24 15 19 22 19 22 22 20 25 19
47 48 49 49 47 47 45 33 20 9 4 6 7 6 4 5 4 2 5 10 10 11 8 16 23 22 12 6 3 7 5 8 12 8 15 16 19 19 23 21 16 22 13 25 23 27 12
44 46 48 49 48 45 44 40 27 15 6 4 7 7 7 8 4 5 12 4 7 10 23 24 10 13 7 4 5 5 6 11 10 17 23 22 18 18 22 26 24 23 25 25 23 16 1
40 43 45 46 47 47 43 40 34 22 11 3 7 9 12 9 9 11 6 14 6 16 16 23 15 6 4 8 7 3 10 15 9 20 30 12 23 16 17 14 22 25 29 27 24 6 8
35 38 41 43 45 46 45 39 35 27 16 4 7 12 14 12 12 7 2 9 10 11 15 21 21 21 15 15 9 9 13 12 20 13 11 18 18 15 12 16 14 24 29 21 25 32 23
32 34 37 40 42 44 45 43 36 31 19 6 7 15 16 14 7 5 7 7 10 7 11 27 18 14 13 15 7 3 6 16 8 14 11 8 16 16 13 6 16 20 27 28 25 24 25
29 32 34 37 39 41 43 44 41 32 23 10 8 15 15 10 3 13 3 10 9 4 10 28 27 15 19 21 19 9 2 10 16 6 10 12 1 10 17 22 18 23 28 25 26 25 27
28 30 32 35 37 38 41 42 43 36 27 12 8 13 14 1 8 9 8 11 5 11 12 17 20 17 20 21 15 9 10 4 11 18 13 12 9 8 13 13 19 18 25 29 28 23 22
28 30 31 33 35 36 38 39 41 39 28 15 4 18 19 11 12 10 13 9 10 17 12 17 22 20 26 16 17 11 15 17 14 11 19 13 24 15 8 19 8 10 20 15 8 17 19
26 28 31 32 34 35 36 36 37 38 30 18 3 13 14 13 10 15 8 12 15 25 23 12 7 21 23 22 11 14 10 18 18 9 19 22 12 9 13 7 12 20 9 11 14 16 27
27 28 30 32 34 35 35 35 34 34 34 19 5 2 9 9 9 8 16 16 21 23 11 4 14 19 21 12 11 11 18 20 12 18 12 17 6 10 5 9 7 21 9 13 10 19 20
28 29 30 31 33 35 36 35 34 31 31 20 9 15 20 12 8 6 14 27 25 4 14 8 16 19 21 18 17 17 14 13 6 10 8 12 15 16 16 6 10 10 14 8 10 6 14
29 30 31 32 33 33 35 37 36 32 27 21 11 15 16 10 7 16 17 21 10 16 9 5 17 8 14 13 3 12 17 17 5 4 10 17 7 15 1 16 14 11 14 12 1 9 13
28 29 31 33 32 33 33 35 37 35 27 18 11 14 11 7 16 24 23 24 5 3 9 10 12 15 15 16 11 16 9 17 10 9 13 13 8 16 26 17 5 14 21 18 7 14 19
29 29 30 31 33 33 32 31 32 35 34 32 16 28 8 12 14 17 13 7 1 6 13 3 7 3 9 10 6 13 12 13 9 3 9 11 7 8 16 18 9 10 14 15 14 11 21
28 31 31 30 30 31 32 30 27 26 28 28 13 10 24 15 27 19 23 9 13 6 8 6 8 0 9 14 11 11 5 9 11 8 7 8 10 18 16 29 24 14 18 21 21 13 23
30 28 29 31 30 30 29 29 28 23 20 21 12 9 11 8 3 15 13 22 15 16 17 15 11 16 15 10 15 16 15 22 17 15 7 5 14 24 28 32 30 29 30 29 28 29 27
32 32 29 29 29 29 30 29 26 24 13 7 14 16 24 31 22 17 14 17 26 23 15 14 16 20 10 12 15 17 15 9 11 16 10 15 14 19 26 28 32 37 27 28 32 29 30
35 34 31 28 28 28 28 29 25 20 10 9 21 14 15 22 21 15 22 24 23 17 14 15 15 11 13 11 4 8 12 15 16 9 11 13 17 17 24 27 31 17 28 16 12 21 24
35 34 31 29 31 31 29 26 24 18 12 9 16 20 16 18 26 22 23 13 21 10 15 14 14 18 10 9 3 7 16 17 20 19 18 17 17 15 23 27 27 22 11 9 11 10 16
35 36 34 31 29 30 28 25 23 20 16 13 5 19 20 15 31 37 26 17 22 23 16 25 12 8 8 3 7 14 18 17 26 21 19 18 16 14 19 23 28 24 11 4 9 11 15
29 31 32 34 34 33 31 25 25 24 21 16 11 12 15 19 14 22 31 16 17 19 21 25 11 6 3 10 16 19 14 19 11 15 14 15 16 14 21 25 23 17 17 14 6 8 6
28 28 28 30 32 32 34 32 26 25 23 22 19 15 14 29 42 29 17 15 27 29 20 30 28 9 11 14 18 21 22 25 24 23 13 17 13 21 21 25 26 8 28 8 6 4 12
28 28 28 28 29 31 30 30 27 24 23 23 18 10 15 28 47 30 23 25 26 22 16 6 18 17 16 15 19 20 19 22 17 16 18 19 12 14 18 24 27 21 13 6 6 15 21
28 28 29 28 28 28 28 26 26 27 23 24 21 12 18 26 34 31 31 29 27 23 22 17 22 3 30 12 15 11 15 11 10 16 17 21 14 12 10 8 17 10 15 4 14 22 26
Wind_Direction_500mb
46 44 45 44 45 55 71 83 96 116 136 144 148 150 153 156 159 164 168 170 164 132 79 179 193 220 247 273 74 21 36 330 189 293 273 264 257 263 273 12 300 268 99 318 49 336 3
45 44 43 42 42 47 60 76 86 106 129 141 146 148 151 155 161 169 176 180 178 152 91 176 207 234 276 280 118 301 315 259 282 270 293 290 317 336 310 283 268 3 353 202 162 133 241
45 42 42 42 41 44 54 70 85 107 129 140 143 145 148 154 167 178 190 195 197 188 115 143 212 251 284 294 223 261 287 302 291 285 278 275 305 290 340 270 288 281 265 216 203 179 220
43 42 41 41 40 40 49 61 80 103 133 146 147 145 149 160 173 190 206 212 216 217 177 198 219 241 271 285 256 265 273 264 306 279 279 295 270 280 283 340 275 259 232 234 151 162 141
43 42 41 40 39 39 42 48 65 97 131 160 165 167 168 168 178 204 221 222 227 232 217 223 235 240 250 87 221 230 303 311 309 268 283 290 265 255 232 264 247 209 253 230 156 184 152
42 41 39 39 39 37 38 40 45 65 128 169 181 188 174 153 144 159 185 198 210 231 234 215 258 276 205 197 135 254 290 277 268 238 248 235 238 235 221 222 266 335 281 271 154 166 168
39 39 38 37 37 36 35 35 36 40 60 171 182 173 153 133 110 134 146 288 205 231 218 255 157 268 116 124 204 234 300 275 261 260 271 230 284 280 16 0 348 323 310 316 314 119 153
35 35 35 35 34 34 32 31 30 30 33 109 167 166 146 125 117 141 199 253 353 318 258 231 262 264 157 210 210 196 232 249 206 255 230 263 246 45 345 351 329 317 302 292 288 218 165
31 30 31 31 31 31 30 26 26 23 23 59 155 160 151 131 136 137 290 318 311 307 266 183 215 217 202 216 234 102 304 305 304 245 259 267 24 2 2 326 347 316 343 304 335 337 316
26 25 25 26 26 27 26 24 20 19 14 20 158 164 162 166 217 217 215 334 333 298 271 165 196 224 179 227 174 31 313 302 268 1 345 360 27 333 312 348 26 303 11 335 315 302 287
17 18 19 19 20 22 22 21 19 14 12 11 160 167 179 201 279 278 323 318 287 277 276 135 179 140 181 214 108 158 166 280 299 69 278 44 1 333 301 22 5 311 335 302 291 284 287
8 11 11 11 13 16 16 17 16 13 11 12 184 175 179 328 289 320 314 296 301 237 259 154 146 205 205 216 171 128 207 287 340 297 256 319 67 298 355 326 275 304 288 293 270 258 262
357 0 4 5 5 8 10 11 11 11 7 3 234 196 193 235 335 299 297 256 224 251 102 153 182 194 202 183 157 211 211 214 249 307 274 210 227 124 353 317 354 273 333 316 290 236 237
348 351 353 357 359 359 2 5 7 6 4 357 327 210 216 231 291 305 271 231 255 244 226 97 228 181 218 181 201 169 258 261 226 282 298 298 183 150 118 357 334 295 336 291 320 315 326
338 342 345 348 351 352 353 356 1 2 359 352 352 229 213 244 275 306 259 227 231 324 26 102 228 258 216 126 249 189 243 257 62 8 333 330 18 109 68 355 346 9 305 31 327 282 274
328 333 337 341 344 346 346 348 351 357 354 348 294 259 249 192 277 272 246 261 297 21 342 322 260 224 242 209 176 225 247 47 86 31 358 298 299 302 120 317 195 276 342 273 197 286 300
318 324 328 333 338 342 343 344 345 348 351 343 302 260 161 191 268 254 245 247 215 87 319 304 292 310 290 325 334 314 309 115 65 48 317 303 292 282 329 227 263 191 228 216 359 308 293
307 313 319 324 330 336 341 342 344 345 346 335 296 265 152 176 241 238 242 344 98 143 203 239 318 333 327 350 328 298 292 57 63 20 292 48 330 288 281 83 29 299 290 325 298 278 289
305 307 310 316 321 328 334 339 343 346 353 352 305 295 216 220 248 256 220 220 239 204 256 259 243 339 42 297 300 258 316 89 74 350 15 358 238 291 280 201 145 255 270 239 236 266 264
294 303 308 311 315 319 325 331 335 341 340 337 292 285 203 210 255 291 297 250 185 207 309 254 294 92 253 261 235 278 232 126 110 50 67 353 274 267 262 308 320 273 260 245 243 252 265
284 290 299 307 312 316 320 323 328 326 331 330 261 296 1 297 13 291 259 295 267 168 216 213 240 242 253 256 263 227 233 134 172 164 201 240 263 271 269 278 289 292 284 280 273 276 282
280 276 285 293 302 311 318 322 323 326 325 329 323 350 342 298 292 293 279 266 269 273 180 220 226 276 228 252 269 309 354 312 272 160 207 201 274 282 281 280 273 268 276 288 279 281 280
280 278 274 280 287 295 307 320 323 325 334 328 352 322 294 293 279 254 255 247 247 259 287 221 299 237 236 256 283 353 338 312 295 308 239 221 261 287 287 296 298 274 273 329 359 351 339
273 280 277 277 279 285 292 300 315 319 334 332 339 323 287 284 274 268 260 273 290 323 284 269 248 260 96 100 122 279 266 248 247 243 246 274 256 273 278 279 275 276 82 20 326 333 344
269 270 274 279 280 280 282 283 288 298 291 280 304 315 295 282 279 287 272 244 271 259 252 269 219 101 121 136 273 234 232 231 233 226 222 206 271 280 273 275 284 297 104 93 110 309 314
274 272 270 270 275 280 276 272 281 278 279 266 299 285 280 291 249 348 317 297 247 243 217 220 95 101 129 270 233 252 259 281 151 179 208 213 199 255 281 286 286 308 136 127 178 320 27
273 276 276 270 269 273 279 275 276 267 265 262 240 287 273 276 275 294 290 321 318 276 281 202 158 175 212 243 253 253 258 260 268 268 174 197 218 240 255 258 264 327 122 136 286 263 348
265 270 274 275 272 271 271 273 273 263 256 252 219 259 270 272 270 288 292 278 287 289 289 46 141 193 203 236 250 258 262 267 263 278 263 264 201 234 265 264 270 96 117 203 7 333 311
266 265 268 271 274 272 263 268 269 269 263 248 246 277 265 263 259 289 282 262 260 272 303 298 269 186 210 233 223 254 261 276 229 266 284 260 260 286 251 275 155 192 235 220 286 299 310
Wind_Speed_850mb
53 52 49 43 30 18 13 10 8 8 10 16 19 18 17 17 18 18 19 17 10 5 6 17 26 24 16 20 7 5 2 1 5 18 29 32 29 27 19 5 4 26 13 10 8 0 15
53 53 52 49 40 26 16 11 10 11 14 17 17 16 17 16 16 16 17 15 10 4 6 13 22 26 25 33 5 2 5 8 13 15 16 19 24 19 26 10 11 21 5 9 5 18 3
51 52 53 51 48 34 21 13 11 11 13 15 14 14 14 12 12 13 14 14 10 4 4 5 16 23 24 12 4 6 7 8 10 13 17 14 19 17 19 4 14 12 14 17 13 8 8
51 50 50 52 50 45 28 18 11 10 11 12 11 11 9 8 8 9 11 13 11 6 4 5 14 18 15 4 7 6 7 6 7 8 13 13 13 19 31 12 10 24 27 27 27 15 16
50 50 49 49 50 48 39 25 14 8 7 8 8 7 5 4 4 5 8 12 11 9 7 10 15 17 10 3 9 3 8 10 6 6 8 11 12 24 15 19 22 19 22 22 20 25 19
47 48 49 49 47 47 45 33 20 9 4 6 7 6 4 5 4 2 5 10 10 11 8 16 23 22 12 6 3 7 5 8 12 8 15 16 19 19 23 21 16 22 13 25 23 27 12
44 46 48 49 48 45 44 40 27 15 6 4 7 7 7 8 4 5 12 4 7 10 23 24 10 13 7 4 5 5 6 11 10 17 23 22 18 18 22 26 24 23 25 25 23 16 1
40 43 45 46 47 47 43 40 34 22 11 3 7 9 12 9 9 11 6 14 6 16 16 23 15 6 4 8 7 3 10 15 9 20 30 12 23 16 17 14 22 25 29 27 24 6 8
35 38 41 43 45 46 45 39 35 27 16 4 7 12 14 12 12 7 2 9 10 11 15 21 21 21 15 15 9 9 13 12 20 13 11 18 18 15 12 16 14 24 29 21 25 32 23
32 34 37 40 42 44 45 43 36 31 19 6 7 15 16 14 7 5 7 7 10 7 11 27 18 14 13 15 7 3 6 16 8 14 11 8 16 16 13 6 16 20 27 28 25 24 25
29 32 34 37 39 41 43 44 41 32 23 10 8 15 15 10 3 13 3 10 9 4 10 28 27 15 19 21 19 9 2 10 16 6 10 12 1 10 17 22 18 23 28 25 26 25 27
28 30 32 35 37 38 41 42 43 36 27 12 8 13 14 1 8 9 8 11 5 11 12 17 20 17 20 21 15 9 10 4 11 18 13 12 9 8 13 13 19 18 25 29 28 23 22
28 30 31 33 35 36 38 39 41 39 28 15 4 18 19 11 12 10 13 9 10 17 12 17 22 20 26 16 17 11 15 17 14 11 19 13 24 15 8 19 8 10 20 15 8 17 19
26 28 31 32 34 35 36 36 37 38 30 18 3 13 14 13 10 15 8 12 15 25 23 12 7 21 23 22 11 14 10 18 18 9 19 22 12 9 13 7 12 20 9 11 14 16 27
27 28 30 32 34 35 35 35 34 34 34 19 5 2 9 9 9 8 16 16 21 23 11 4 14 19 21 12 11 11 18 20 12 18 12 17 6 10 5 9 7 21 9 13 10 19 20
28 29 30 31 33 35 36 35 34 31 31 20 9 15 20 12 8 6 14 27 25 4 14 8 16 19 21 18 17 17 14 13 6 10 8 12 15 16 16 6 10 10 14 8 10 6 14
29 30 31 32 33 33 35 37 36 32 27 21 11 15 16 10 7 16 17 21 10 16 9 5 17 8 14 13 3 12 17 17 5 4 10 17 7 15 1 16 14 11 14 12 1 9 13
28 29 31 33 32 33 33 35 37 35 27 18 11 14 11 7 16 24 23 24 5 3 9 10 12 15 15 16 11 16 9 17 10 9 13 13 8 16 26 17 5 14 21 18 7 14 19
29 29 30 31 33 33 32 31 32 35 34 32 16 28 8 12 14 17 13 7 1 6 13 3 7 3 9 10 6 13 12 13 9 3 9 11 7 8 16 18 9 10 14 15 14 11 21
28 31 31 30 30 31 32 30 27 26 28 28 13 10 24 15 27 19 23 9 13 6 8 6 8 0 9 14 11 11 5 9 11 8 7 8 10 18 16 29 24 14 18 21 21 13 23
30 28 29 31 30 30 29 29 28 23 20 21 12 9 11 8 3 15 13 22 15 16 17 15 11 16 15 10 15 16 15 22 17 15 7 5 14 24 28 32 30 29 30 29 28 29 27
32 32 29 29 29 29 30 29 26 24 13 7 14 16 24 31 22 17 14 17 26 23 15 14 16 20 10 12 15 17 15 9 11 16 10 15 14 19 26 28 32 37 27 28 32 29 30
35 34 31 28 28 28 28 29 25 20 10 9 21 14 15 22 21 15 22 24 23 17 14 15 15 11 13 11 4 8 12 15 16 9 11 13 17 17 24 27 31 17 28 16 12 21 24
35 34 31 29 31 31 29 26 24 18 12 9 16 20 16 18 26 22 23 13 21 10 15 14 14 18 10 9 3 7 16 17 20 19 18 17 17 15 23 27 27 22 11 9 11 10 16
35 36 34 31 29 30 28 25 23 20 16 13 5 19 20 15 31 37 26 17 22 23 16 25 12 8 8 3 7 14 18 17 26 21 19 18 16 14 19 23 28 24 11 4 9 11 15
29 31 32 34 34 33 31 25 25 24 21 16 11 12 15 19 14 22 31 16 17 19 21 25 11 6 3 10 16 19 14 19 11 15 14 15 16 14 21 25 23 17 17 14 6 8 6
28 28 28 30 32 32 34 32 26 25 23 22 19 15 14 29 42 29 17 15 27 29 20 30 28 9 11 14 18 21 22 25 24 23 13 17 13 21 21 25 26 8 28 8 6 4 12
28 28 28 28 29 31 30 30 27 24 23 23 18 10 15 28 47 30 23 25 26 22 16 6 18 17 16 15 19 20 19 22 17 16 18 19 12 14 18 24 27 21 13 6 6 15 21
28 28 29 28 28 28 28 26 26 27 23 24 21 12 18 26 34 31 31 29 27 23 22 17 22 3 30 12 15 11 15 11 10 16 17 21 14 12 10 8 17 10 15 4 14 22 26
Wind_Direction_850mb
46 44 45 44 45 55 71 83 96 116 136 144 148 150 153 156 159 164 168 170 164 132 79 179 193 220 247 273 74 21 36 330 189 293 273 264 257 263 273 12 300 268 99 318 49 336 3
45 44 43 42 42 47 60 76 86 106 129 141 146 148 151 155 161 169 176 180 178 152 91 176 207 234 276 280 118 301 315 259 282 270 293 290 317 336 310 283 268 3 353 202 162 133 241
45 42 42 42 41 44 54 70 85 107 129 140 143 145 148 154 167 178 190 195 197 188 115 143 212 251 284 294 223 261 287 302 291 285 278 275 305 290 340 270 288 281 265 216 203 179 220
43 42 41 41 40 40 49 61 80 103 133 146 147 145 149 160 173 190 206 212 216 217 177 198 219 241 271 285 256 265 273 264 306 279 279 295 270 280 283 340 275 259 232 234 151 162 141
43 42 41 40 39 39 42 48 65 97 131 160 165 167 168 168 178 204 221 222 227 232 217 223 235 240 250 87 221 230 303 311 309 268 283 290 265 255 232 264 247 209 253 230 156 184 152
42 41 39 39 39 37 38 40 45 65 128 169 181 188 174 153 144 159 185 198 210 231 234 215 258 276 205 197 135 254 290 277 268 238 248 235 238 235 221 222 266 335 281 271 154 166 168
39 39 38 37 37 36 35 35 36 40 60 171 182 173 153 133 110 134 146 288 205 231 218 255 157 268 116 124 204 234 300 275 261 260 271 230 284 280 16 0 348 323 310 316 314 119 153
35 35 35 35 34 34 32 31 30 30 33 109 167 166 146 125 117 141 199 253 353 318 258 231 262 264 157 210 210 196 232 249 206 255 230 263 246 45 345 351 329 317 302 292 288 218 165
31 30 31 31 31 31 30 26 26 23 23 59 155 160 151 131 136 137 290 318 311 307 266 183 215 217 202 216 234 102 304 305 304 245 259 267 24 2 2 326 347 316 343 304 335 337 316
26 25 25 26 26 27 26 24 20 19 14 20 158 164 162 166 217 217 215 334 333 298 271 165 196 224 179 227 174 31 313 302 268 1 345 360 27 333 312 348 26 303 11 335 315 302 287
17 18 19 19 20 22 22 21 19 14 12 11 160 167 179 201 279 278 323 318 287 277 276 135 179 140 181 214 108 158 166 280 299 69 278 44 1 333 301 22 5 311 335 302 291 284 287
8 11 11 11 13 16 16 17 16 13 11 12 184 175 179 328 289 320 314 296 301 237 259 154 146 205 205 216 171 128 207 287 340 297 256 319 67 298 355 326 275 304 288 293 270 258 262
357 0 4 5 5 8 10 11 11 11 7 3 234 196 193 235 335 299 297 256 224 251 102 153 182 194 202 183 157 211 211 214 249 307 274 210 227 124 353 317 354 273 333 316 290 236 237
348 351 353 357 359 359 2 5 7 6 4 357 327 210 216 231 291 305 271 231 255 244 226 97 228 181 218 181 201 169 258 261 226 282 298 298 183 150 118 357 334 295 336 291 320 315 326
338 342 345 348 351 352 353 356 1 2 359 352 352 229 213 244 275 306 259 227 231 324 26 102 228 258 216 126 249 189 243 257 62 8 333 330 18 109 68 355 346 9 305 31 327 282 274
328 333 337 341 344 346 346 348 351 357 354 348 294 259 249 192 277 272 246 261 297 21 342 322 260 224 242 209 176 225 247 47 86 31 358 298 299 302 120 317 195 276 342 273 197 286 300
318 324 328 333 338 342 343 344 345 348 351 343 302 260 161 191 268 254 245 247 215 87 319 304 292 310 290 325 334 314 309 115 65 48 317 303 292 282 329 227 263 191 228 216 359 308 293
307 313 319 324 330 336 341 342 344 345 346 335 296 265 152 176 241 238 242 344 98 143 203 239 318 333 327 350 328 298 292 57 63 20 292 48 330 288 281 83 29 299 290 325 298 278 289
305 307 310 316 321 328 334 339 343 346 353 352 305 295 216 220 248 256 220 220 239 204 256 259 243 339 42 297 300 258 316 89 74 350 15 358 238 291 280 201 145 255 270 239 236 266 264
294 303 308 311 315 319 325 331 335 341 340 337 292 285 203 210 255 291 297 250 185 207 309 254 294 92 253 261 235 278 232 126 110 50 67 353 274 267 262 308 320 273 260 245 243 252 265
284 290 299 307 312 316 320 323 328 326 331 330 261 296 1 297 13 291 259 295 267 168 216 213 240 242 253 256 263 227 233 134 172 164 201 240 263 271 269 278 289 292 284 280 273 276 282
280 276 285 293 302 311 318 322 323 326 325 329 323 350 342 298 292 293 279 266 269 273 180 220 226 276 228 252 269 309 354 312 272 160 207 201 274 282 281 280 273 268 276 288 279 281 280
280 278 274 280 287 295 307 320 323 325 334 328 352 322 294 293 279 254 255 247 247 259 287 221 299 237 236 256 283 353 338 312 295 308 239 221 261 287 287 296 298 274 273 329 359 351 339
273 280 277 277 279 285 292 300 315 319 334 332 339 323 287 284 274 268 260 273 290 323 284 269 248 260 96 100 122 279 266 248 247 243 246 274 256 273 278 279 275 276 82 20 326 333 344
269 270 274 279 280 280 282 283 288 298 291 280 304 315 295 282 279 287 272 244 271 259 252 269 219 101 121 136 273 234 232 231 233 226 222 206 271 280 273 275 284 297 104 93 110 309 314
274 272 270 270 275 280 276 272 281 278 279 266 299 285 280 291 249 348 317 297 247 243 217 220 95 101 129 270 233 252 259 281 151 179 208 213 199 255 281 286 286 308 136 127 178 320 27
273 276 276 270 269 273 279 275 276 267 265 262 240 287 273 276 275 294 290 321 318 276 281 202 158 175 212 243 253 253 258 260 268 268 174 197 218 240 255 258 264 327 122 136 286 263 348
265 270 274 275 272 271 271 273 273 263 256 252 219 259 270 272 270 288 292 278 287 289 289 46 141 193 203 236 250 258 262 267 263 278 263 264 201 234 265 264 270 96 117 203 7 333 311
266 265 268 271 274 272 263 268 269 269 263 248 246 277 265 263 259 289 282 262 260 272 303 298 269 186 210 233 223 254 261 276 229 266 284 260 260 286 251 275 155 192 235 220 286 299 310